Regional Weather Roundup
Issued by NWS

Home | Current Version | Previous Version | Graphics & Text | Print | Product List | Glossary On
Versions: 1 2 3 4 5 6 7 8 9 10 11 12 13 14 15 16 17 18 19 20 21 22 23 24 25 26 27 28 29 30 31 32 33 34 35 36 37 38 39 40 41 42 43 44 45 46 47 48 49 50
000
ASUS43 KDTX 241210
RWRMI
MICHIGAN HOURLY REGIONAL WEATHER ROUNDUP
NATIONAL WEATHER SERVICE DETROIT/PONTIAC MI
800 AM EDT FRI OCT 24 2014

NOTE: "FAIR" INDICATES FEW OR NO CLOUDS BELOW 12,000 FEET WITH NO
SIGNIFICANT WEATHER AND/OR OBSTRUCTION TO VISIBILITY.

MIZ047>049-052>055-059>063-066>070-074>076-081>083-241300-
SOUTHEAST LOWER MICHIGAN

CITY           SKY/WX    TMP DP  RH WIND       PRES   REMARKS
ADRIAN         CLEAR     33  31  92 CALM      30.09F
6HR MIN TEMP:  33; 6HR MAX TEMP:  38;

ALMA           CLOUDY    43  41  92 CALM      30.05S FOG
ANN ARBOR      CLEAR     32  28  85 CALM      30.08S FOG
BAD AXE        CLOUDY    32  32 100 CALM      30.06S FOG
6HR MIN TEMP:  28; 6HR MAX TEMP:  34;

DETROIT CITY   PTCLDY    40  34  79 CALM      30.08F
6HR MIN TEMP:  38; 6HR MAX TEMP:  43;

DETROIT        MOCLDY    38  35  89 S3        30.09S
6HR MIN TEMP:  37; 6HR MAX TEMP:  41;

FLINT          CLEAR     36  33  89 CALM      30.07F FOG
6HR MIN TEMP:  34; 6HR MAX TEMP:  38;

GROSSE ILE     CLEAR     37  36  93 CALM      30.08S FOG
HILLSDALE      PTCLDY    38  38 100 CALM      30.07F FOG
6HR MIN TEMP:  33; 6HR MAX TEMP:  38;

HOWELL         CLOUDY    35  34  96 CALM      30.06F FOG
6HR MIN TEMP:  33; 6HR MAX TEMP:  39;


CITY           SKY/WX    TMP DP  RH WIND       PRES   REMARKS
JACKSON        MOCLDY    37  36  96 CALM      30.07F
6HR MIN TEMP:  33; 6HR MAX TEMP:  38;

LAMBERTVILLE   CLEAR     37  36  93 CALM      30.10S FOG
LANSING        CLOUDY    44  40  85 S3        30.07S
6HR MIN TEMP:  39; 6HR MAX TEMP:  44;

LAPEER         NOT AVBL
MASON          CLOUDY    40  38  91 S6        30.06F
MONROE         CLEAR     34  34 100 CALM      30.07F FOG
MT. CLEMENS    MOCLDY    36  36  99 CALM      30.05F
6HR MIN TEMP:  35; 6HR MAX TEMP:  39;

PONTIAC        MOCLDY    36  33  89 CALM      30.06F
6HR MIN TEMP:  34; 6HR MAX TEMP:  37;

PORT HOPE        N/A     43  37  79 SW8       30.03F
6HR MIN TEMP:  39; 6HR MAX TEMP:  43;

PORT HURON     MOCLDY    32  32 100 CALM      30.08S
TRI CITIES     PTCLDY    41  36  82 S7        30.06F
6HR MIN TEMP:  39; 6HR MAX TEMP:  45;

YPSILANTI      CLEAR     39  34  82 SW6       30.09S
6HR MIN TEMP:  37; 6HR MAX TEMP:  41;

$$
MIZ043>046-050>051-056>058-064>065-071>073-077>080-241300-
SOUTHWEST LOWER MICHIGAN

CITY           SKY/WX    TMP DP  RH WIND       PRES   REMARKS
BATTLE CREEK   CLOUDY    47  41  80 SW8       30.06F
6HR MIN TEMP:  42; 6HR MAX TEMP:  47;

BENTON HARBOR  PTCLDY    48  43  82 S3        30.05S
6HR MIN TEMP:  47; 6HR MAX TEMP:  51;

BIG RAPIDS     MOCLDY    45  45 100 CALM      30.02R
6HR MIN TEMP:  41; 6HR MAX TEMP:  46;

COLDWATER      CLOUDY    47  43  84 SW6       30.06F
6HR MIN TEMP:  36; 6HR MAX TEMP:  47;

HOLLAND        CLOUDY    51  45  79 CALM      30.05S
6HR MIN TEMP:  48; 6HR MAX TEMP:  53;

GRAND RAPIDS   CLOUDY    50  43  77 SW6       30.05S
6HR MIN TEMP:  44; 6HR MAX TEMP:  50;

KALAMAZOO      CLOUDY    48  42  80 S5        30.06F
6HR MIN TEMP:  45; 6HR MAX TEMP:  48;

MARSHALL       CLOUDY    44  40  85 SW3       30.06S
MUSKEGON       CLOUDY    55  49  80 SW7       30.03S
6HR MIN TEMP:  50; 6HR MAX TEMP:  56;

$$
MIZ016>042-241300-
NORTHERN LOWER MICHIGAN

CITY           SKY/WX    TMP DP  RH WIND       PRES   REMARKS
ALPENA         CLOUDY    43  40  89 CALM      30.02F
6HR MIN TEMP:  28; 6HR MAX TEMP:  43;

BEAVER ISLAND  CLOUDY    51  50  95 W6        29.99F FOG
6HR MIN TEMP:  51; 6HR MAX TEMP:  52;

BELLAIRE       CLOUDY    49  45  85 CALM      30.01S
CADILLAC       CLOUDY    46  45  95 CALM      30.01S
CHARLEVOIX     CLOUDY    50  47  88 S5        30.02F
6HR MIN TEMP:  47; 6HR MAX TEMP:  50;

FRANKFORT      CLOUDY    51  49  91 CALM      30.00F FOG
GAYLORD        CLOUDY    44  40  85 SW3       30.01S
6HR MIN TEMP:  40; 6HR MAX TEMP:  45;

GRAYLING       CLOUDY    43  40  89 CALM      30.03R
6HR MIN TEMP:  37; 6HR MAX TEMP:  44;

HARBOR SPRINGS CLOUDY    46  42  87 NE3       30.00F
HOUGHTON LAKE  CLOUDY    42  40  92 CALM      30.02F
6HR MIN TEMP:  37; 6HR MAX TEMP:  42;

OSCODA         CLOUDY    41  40  97 CALM      30.03F
PELLSTON       CLOUDY    44  41  89 CALM      30.00F
6HR MIN TEMP:  40; 6HR MAX TEMP:  45;

TRAVERSE CITY  DRIZZLE   50  46  86 S3        30.00S
6HR MIN TEMP:  47; 6HR MAX TEMP:  51; 6HR PCP: TRACE;

$$
MIZ007>008-015-241300-
EASTERN UPPER MICHIGAN

CITY           SKY/WX    TMP DP  RH WIND       PRES   REMARKS
KINROSS        CLOUDY    45  45 100 S6        29.99S
6HR MIN TEMP:  43; 6HR MAX TEMP:  46;

MACKINAC ISLAN CLOUDY    48  44  84 S6        29.99F
6HR MIN TEMP:  46; 6HR MAX TEMP:  49;

NEWBERRY       CLOUDY    47  47  99 CALM      29.98S FOG
S. S. MARIE    CLOUDY    43  41  93 CALM      29.99S FOG
6HR MIN TEMP:  40; 6HR MAX TEMP:  43; 6HR PCP: TRACE;

$$
MIZ004>006-011>014-085-241300-
CENTRAL UPPER MICHIGAN

CITY           SKY/WX    TMP DP  RH WIND       PRES   REMARKS
MANISTIQUE     CLOUDY    48  47  99 W3        29.98F FOG
ESCANABA       CLOUDY    46  43  87 W3        29.98F
6HR MIN TEMP:  46; 6HR MAX TEMP:  48;

MENOMINEE      CLOUDY    46  45  93 W5        30.00F
6HR MIN TEMP:  46; 6HR MAX TEMP:  48;

SAWYER-GWINN   FOG       43  41  93 S6        29.97F VSB 1/2
$$
MIZ001>003-009>011-084-241300-
WESTERN UPPER MICHIGAN

CITY           SKY/WX    TMP DP  RH WIND       PRES   REMARKS
IRON MOUNTAIN  CLOUDY    43  42  97 W6        29.98S FOG
6HR MIN TEMP:  43; 6HR MAX TEMP:  46;

HOUGHTON       FOG       45  43  93 S7        29.92F VSB<1/4
6HR MIN TEMP:  45; 6HR MAX TEMP:  47;

COPPER HARBOR    N/A     47  45  93 VRB5      29.93F
6HR MIN TEMP:  47; 6HR MAX TEMP:  49;

IRONWOOD       CLOUDY    46  46 100 S8        29.90F
6HR MIN TEMP:  46; 6HR MAX TEMP:  46;

$$

ABBREVIATIONS USED IN REMARKS
   TC - TEMPERATURE IN CELSIUS
  WCI - WIND CHILL INDEX
   HX - HEAT INDEX
  VSB - VISIBILITY




USA.gov is the U.S. government's official web portal to all federal, state and local government web resources and services.